Date String (YYYY-MM-DD hh:mm:ss) UTC,Instrument flags,Ambient pressure (hPa),Sample flow (lpm),Bypass flow (lpm),Sample temperature (°C),Ambient temperature (°C),ASC tube jacket temperature (°C),LED temperature (°C),Box temperature (°C),Sample RH (%),Span deviation,Mass concentration (μg/m³),Mass concentration (μg/m³),Mass concentration (μg/m³)
DateTimeUTC,F1_M11,P_M11,Q1_M11,Q2_M11,T1_M11,T2_M11,T3_M11,T4_M11,T5_M11,U1_M11,ZSPAN_M11,X2_M11,X0_M11,X1_M11
2021-11-23 17:00:00,,0819.6,5.01,0.00,26.2,25.1,00.0,35.2,27.9,03.3,0000.0,0000.60,0001.16,0000.41
2021-11-23 17:01:00,,0819.6,5.00,0.00,26.2,25.1,00.0,35.2,27.9,03.3,0000.0,0000.60,0001.74,0000.40
2021-11-23 17:02:00,,0819.5,4.99,0.00,26.2,25.1,00.0,35.2,27.9,03.3,0000.0,0000.57,0001.59,0000.39
2021-11-23 17:03:00,,0819.6,5.02,0.00,26.2,25.1,00.0,35.2,27.9,03.3,0000.0,0000.54,0001.81,0000.38
2021-11-23 17:04:00,,0819.5,4.98,0.00,26.2,25.1,00.0,35.2,27.9,03.3,0000.0,0000.53,0002.77,0000.37
2021-11-23 17:05:00,,0819.5,5.01,0.00,26.2,25.1,00.0,35.2,27.9,03.2,0000.0,0000.52,0002.94,0000.37
2021-11-23 17:06:00,,0819.5,5.01,0.00,26.2,25.1,00.0,35.2,27.9,03.3,0000.0,0000.51,0002.91,0000.37
2021-11-23 17:07:00,,0819.6,4.99,0.00,26.3,25.2,00.0,35.2,28.0,03.4,0000.0,0000.52,0002.94,0000.37
2021-11-23 17:08:00,,0819.6,4.99,0.00,26.3,25.2,00.0,35.2,28.0,03.4,0000.0,0000.52,0002.93,0000.37
2021-11-23 17:09:00,,0819.6,5.01,0.00,26.3,25.2,00.0,35.2,27.9,03.4,0000.0,0000.51,0002.89,0000.37
2021-11-23 17:10:00,,0819.5,4.99,0.00,26.3,25.2,00.0,35.3,27.9,03.3,0000.0,0000.50,0002.99,0000.37
2021-11-23 17:11:00,,0819.5,5.01,0.00,26.3,25.2,00.0,35.3,27.9,03.3,0000.0,0000.50,0003.12,0000.36
2021-11-23 17:12:00,,0819.5,5.00,0.00,26.3,25.2,00.0,35.3,28.0,03.3,0000.0,0000.54,0002.63,0000.37
2021-11-23 17:13:00,,0819.5,4.99,0.00,26.3,25.3,00.0,35.3,28.1,03.3,0000.0,0000.54,0002.55,0000.37
2021-11-23 17:14:00,,0819.4,4.99,0.00,26.3,25.3,00.0,35.3,28.1,03.4,0000.0,0000.56,0002.28,0000.38
2021-11-23 17:15:00,,0819.4,5.00,0.00,26.3,25.3,00.0,35.3,28.1,03.5,0000.0,0000.56,0001.34,0000.38
2021-11-23 17:16:00,,0819.3,5.01,0.00,26.4,25.4,00.0,35.3,28.2,03.9,0000.0,0000.57,0001.28,0000.38
2021-11-23 17:17:00,,0819.3,5.00,0.00,26.4,25.4,00.0,35.3,28.2,03.7,0000.0,0000.58,0001.32,0000.39
2021-11-23 17:18:00,,0819.3,5.00,0.00,26.4,25.4,00.0,35.3,28.2,03.8,0000.0,0000.57,0001.30,0000.39
2021-11-23 17:19:00,,0819.3,4.99,0.00,26.4,25.4,00.0,35.3,28.2,03.7,0000.0,0000.58,0001.37,0000.39
2021-11-23 17:20:00,,0819.3,5.00,0.00,26.4,25.5,00.0,35.4,28.2,03.6,0000.0,0000.60,0001.47,0000.39
2021-11-23 17:21:00,,0819.3,5.00,0.00,26.4,25.5,00.0,35.4,28.2,03.5,0000.0,0000.61,0002.15,0000.39
2021-11-23 17:22:00,,0819.2,5.01,0.00,26.4,25.5,00.0,35.4,28.2,03.4,0000.0,0000.61,0002.86,0000.40
2021-11-23 17:23:00,,0819.2,4.99,0.00,26.4,25.5,00.0,35.4,28.2,03.4,0000.0,0000.59,0003.71,0000.39
2021-11-23 17:24:00,,0819.3,5.01,0.00,26.5,25.5,00.0,35.4,28.2,03.3,0000.0,0000.62,0004.49,0000.39
2021-11-23 17:25:00,,0819.2,4.99,0.00,26.5,25.5,00.0,35.4,28.3,03.4,0000.0,0000.61,0005.21,0000.39
2021-11-23 17:26:00,,0819.3,5.00,0.00,26.5,25.6,00.0,35.4,28.3,03.3,0000.0,0000.60,0005.17,0000.39
2021-11-23 17:27:00,,0819.1,5.01,0.00,26.5,25.6,00.0,35.4,28.3,03.2,0000.0,0000.63,0005.16,0000.39
2021-11-23 17:28:00,,0819.0,5.00,0.00,26.5,25.6,00.0,35.5,28.3,03.2,0000.0,0000.68,0005.29,0000.39
2021-11-23 17:29:00,,0819.2,4.99,0.00,26.5,25.6,00.0,35.5,28.3,03.2,0000.0,0000.67,0005.54,0000.38
2021-11-23 17:30:00,,0819.0,5.00,0.00,26.6,25.6,00.0,35.5,28.3,03.3,0000.0,0000.66,0006.03,0000.38
2021-11-23 17:31:00,,0819.1,5.00,0.00,26.6,25.6,00.0,35.5,28.3,03.3,0000.0,0000.65,0005.98,0000.37
2021-11-23 17:32:00,,0819.1,5.00,0.00,26.6,25.7,00.0,35.5,28.4,03.2,0000.0,0000.66,0005.40,0000.38
2021-11-23 17:33:00,,0819.2,5.00,0.00,26.6,25.7,00.0,35.5,28.4,03.2,0000.0,0000.66,0004.42,0000.38
2021-11-23 17:34:00,,0819.3,5.00,0.00,26.6,25.7,00.0,35.5,28.4,03.2,0000.0,0000.67,0003.88,0000.38
2021-11-23 17:35:00,,0819.0,4.99,0.00,26.6,25.7,00.0,35.6,28.4,03.2,0000.0,0000.67,0003.18,0000.38
2021-11-23 17:36:00,,0819.0,5.01,0.00,26.6,25.8,00.0,35.6,28.4,03.4,0000.0,0000.67,0002.09,0000.38
2021-11-23 17:37:00,,0819.2,5.00,0.00,26.7,25.8,00.0,35.6,28.4,03.3,0000.0,0000.68,0003.16,0000.38
2021-11-23 17:38:00,,0819.2,5.00,0.00,26.7,25.8,00.0,35.6,28.5,03.2,0000.0,0000.66,0003.66,0000.39
2021-11-23 17:39:00,,0819.2,5.00,0.00,26.7,25.8,00.0,35.6,28.5,03.5,0000.0,0000.63,0003.55,0000.39
2021-11-23 17:40:00,,0819.0,4.99,0.00,26.7,25.8,00.0,35.6,28.5,03.4,0000.0,0000.64,0003.38,0000.40
2021-11-23 17:41:00,,0819.1,5.00,0.00,26.7,25.8,00.0,35.6,28.5,03.2,0000.0,0000.64,0002.89,0000.40
2021-11-23 17:42:00,,0818.9,5.00,0.00,26.7,25.8,00.0,35.6,28.5,03.1,0000.0,0000.64,0004.88,0000.40
2021-11-23 17:43:00,,0818.9,4.99,0.00,26.8,25.8,00.0,35.7,28.5,03.0,0000.0,0000.64,0005.44,0000.40
2021-11-23 17:44:00,,0818.7,5.00,0.00,26.8,25.9,00.0,35.7,28.5,03.1,0000.0,0000.63,0005.47,0000.40
2021-11-23 17:45:00,,0818.7,5.01,0.00,26.8,25.9,00.0,35.7,28.6,03.1,0000.0,0000.61,0005.47,0000.41
2021-11-23 17:46:00,,0818.8,4.99,0.00,26.8,25.9,00.0,35.7,28.5,03.3,0000.0,0000.60,0005.55,0000.41
2021-11-23 17:47:00,,0818.5,5.00,0.00,26.8,25.8,00.0,35.7,28.6,03.1,0000.0,0000.60,0005.63,0000.40
2021-11-23 17:48:00,,0818.3,5.00,0.00,26.8,25.9,00.0,35.7,28.6,03.0,0000.0,0000.60,0004.44,0000.40
2021-11-23 17:49:00,,0818.4,4.99,0.00,26.8,25.9,00.0,35.7,28.6,03.2,0000.0,0000.66,0006.16,0000.40
2021-11-23 17:50:00,,0818.4,5.00,0.00,26.8,25.9,00.0,35.8,28.6,03.1,0000.0,0000.70,0006.67,0000.40
2021-11-23 17:51:00,,0818.4,5.00,0.00,26.8,25.9,00.0,35.8,28.6,03.0,0000.0,0000.70,0006.71,0000.40
2021-11-23 17:52:00,,0818.3,5.01,0.00,26.8,25.9,00.0,35.8,28.6,02.8,0000.0,0000.70,0006.60,0000.40
2021-11-23 17:53:00,,0818.3,5.00,0.00,26.8,25.9,00.0,35.8,28.6,02.8,0000.0,0000.73,0004.78,0000.40
2021-11-23 17:54:00,,0818.3,5.01,0.00,26.8,26.0,00.0,35.8,28.6,02.8,0000.0,0000.73,0004.64,0000.39
2021-11-23 17:55:00,,0818.3,5.00,0.00,26.8,26.0,00.0,35.8,28.6,03.0,0000.0,0000.74,0004.70,0000.38
2021-11-23 17:56:00,,0818.3,5.01,0.00,26.8,26.0,00.0,35.8,28.6,02.9,0000.0,0000.75,0004.61,0000.38
2021-11-23 17:57:00,,0818.1,5.00,0.00,26.8,26.0,00.0,35.8,28.6,02.9,0000.0,0000.75,0004.55,0000.38
2021-11-23 17:58:00,,0818.1,4.99,0.00,26.8,26.0,00.0,35.8,28.6,03.0,0000.0,0000.75,0004.47,0000.39
2021-11-23 17:59:00,,0818.2,5.00,0.00,26.8,26.0,00.0,35.8,28.6,03.0,0000.0,0000.75,0004.48,0000.39
